CAPE
nan nan nan nan nan nan nan nan nan nan nan nan nan nan nan nan nan nan nan nan nan nan nan nan nan nan nan nan nan nan nan nan nan nan nan 1 1 1 2 2 2 1 1 1 1 1 2 4 4 7 12 18 25 25 33 40 40 46 52 57 57 60 64 65 65 67 67 71 66 66 61 61 65 65 68 71 73 73 75 76 76 81 86 104 104 113
nan nan nan nan nan nan nan nan nan nan nan nan nan nan nan nan nan nan nan nan nan nan nan nan nan nan nan nan nan nan nan nan nan nan nan 1 2 2 2 1 1 1 0 nan nan nan 1 2 2 4 8 13 20 20 29 35 35 41 46 51 51 54 56 59 59 61 63 63 59 59 57 63 65 65 75 78 77 77 77 80 80 83 96 113 113 117
nan nan nan nan nan nan nan nan nan nan nan nan nan nan nan nan nan nan nan nan nan nan nan nan nan nan nan nan nan nan nan nan nan nan nan 0 2 2 2 2 2 0 nan nan nan nan 0 2 2 3 6 11 17 17 23 29 29 34 39 42 42 43 49 50 50 53 55 54 52 52 53 62 70 70 76 81 83 83 80 85 85 96 110 123 123 130
nan nan nan nan nan nan nan nan nan nan nan nan nan nan nan nan nan nan nan nan nan nan nan nan nan nan nan nan nan nan nan nan nan nan nan 1 2 2 2 1 1 nan nan nan nan nan 0 2 2 3 7 12 16 16 20 23 23 27 32 35 35 38 41 42 42 42 45 45 46 46 52 60 69 69 73 85 83 83 85 92 92 105 118 129 129 133
nan nan nan nan nan nan nan nan nan nan nan nan nan nan nan nan nan nan nan nan nan nan nan nan nan nan nan nan nan nan nan nan nan nan 0 1 1 1 1 0 0 nan nan nan nan 0 1 2 2 5 8 12 15 15 18 20 20 23 28 32 32 34 37 40 40 38 39 42 45 45 49 54 60 60 68 81 83 83 87 96 96 109 123 133 133 137
nan nan nan nan nan nan nan nan nan nan nan nan nan nan nan nan nan nan nan nan nan nan nan nan nan nan nan nan nan nan nan nan nan nan 0 0 0 0 0 nan nan nan 0 1 1 1 3 4 4 7 9 12 14 14 15 17 17 19 22 27 27 31 35 35 35 36 37 38 40 40 45 49 56 56 64 76 82 82 87 99 99 112 124 132 132 131
nan nan nan nan nan nan nan nan nan nan nan nan nan nan nan nan nan nan nan nan nan nan nan nan nan nan nan nan nan nan nan nan nan nan nan nan nan nan nan 0 0 1 2 3 3 6 6 7 7 9 11 12 13 13 12 14 14 15 17 20 20 25 29 30 30 31 31 35 41 41 42 46 52 52 56 63 79 79 87 95 95 106 118 126 126 125
nan nan nan nan nan nan nan nan nan nan nan nan nan nan nan nan nan nan nan nan nan nan nan nan nan nan nan nan nan nan nan nan nan nan nan nan nan nan nan 1 1 7 9 12 12 13 14 15 15 13 12 11 9 9 9 8 8 9 11 12 12 16 19 22 22 28 31 36 41 41 43 44 48 48 49 51 58 58 69 81 81 88 97 105 105 118
nan nan nan nan nan nan nan nan nan nan nan nan nan nan nan nan nan nan nan nan nan nan nan nan nan nan nan nan nan nan nan nan nan nan nan nan nan nan nan 2 2 9 14 17 17 18 17 17 17 14 13 11 11 11 10 8 8 8 9 11 11 15 17 22 22 28 34 37 39 39 41 43 46 46 47 49 53 53 56 64 64 78 90 99 99 110
nan nan nan nan nan nan nan nan nan nan nan nan nan nan nan nan nan nan nan nan nan nan nan nan nan nan nan nan nan nan nan nan nan nan nan nan 1 1 nan 1 1 2 16 17 17 19 18 15 15 14 12 12 12 12 10 8 8 7 8 10 10 16 19 24 24 30 33 37 39 39 40 41 44 44 45 46 49 49 50 55 55 60 70 87 87 101
nan nan nan nan nan nan nan nan nan nan nan nan nan nan nan nan nan nan nan nan nan nan nan nan nan nan nan nan nan nan nan nan nan nan nan nan nan nan 1 3 3 7 10 12 12 13 11 10 10 11 11 10 10 10 8 7 7 7 9 14 14 18 20 26 26 30 34 36 38 38 40 40 43 43 45 43 45 45 45 46 46 47 54 65 65 79
nan nan nan nan nan nan nan nan nan nan nan nan nan nan nan nan nan nan nan nan nan nan nan nan nan nan nan nan nan nan nan nan nan nan nan nan nan nan nan nan nan nan nan 1 1 3 5 6 6 8 6 4 7 7 8 4 4 9 14 17 17 22 24 28 28 31 35 36 39 39 41 41 42 42 44 43 42 42 42 42 42 43 48 52 52 63
nan nan nan nan nan nan nan nan nan nan nan nan nan nan nan nan nan nan nan nan nan nan nan nan nan nan nan nan nan nan nan nan nan nan nan nan nan nan nan nan nan nan nan nan nan nan nan 0 0 2 2 1 3 3 7 7 7 11 16 21 21 24 28 31 31 32 36 38 39 39 41 42 44 44 42 43 44 44 41 42 42 42 44 49 49 56
nan nan nan nan nan nan nan nan nan nan nan nan nan nan nan nan nan nan nan nan nan nan nan nan nan nan nan nan nan nan nan nan nan nan nan nan nan nan nan nan nan nan nan nan nan nan nan nan nan nan nan nan nan nan 1 8 8 16 19 24 24 29 29 33 33 32 36 38 41 41 40 41 42 42 43 43 42 42 41 43 43 46 46 50 50 54
nan nan nan nan nan nan nan nan nan nan nan nan nan nan nan nan nan nan nan nan nan nan nan nan nan nan nan nan nan nan nan nan nan nan nan nan nan nan nan nan nan nan nan nan nan nan nan nan nan nan nan nan nan nan 0 7 7 22 24 26 26 26 30 31 31 33 37 39 38 38 39 42 41 41 44 43 44 44 47 47 47 49 52 55 55 58
nan nan nan nan nan nan nan nan nan nan nan nan nan nan nan nan nan nan nan nan nan nan nan nan nan nan nan nan nan nan nan nan nan nan nan nan 0 0 nan nan nan nan nan nan nan nan nan nan nan nan nan nan 1 1 8 15 15 21 23 23 23 26 28 29 29 33 34 38 41 41 42 43 45 45 46 45 48 48 51 51 51 52 56 61 61 64
nan nan nan nan nan nan nan nan nan nan nan nan nan nan nan nan nan nan nan nan nan nan nan nan nan nan nan nan nan nan nan nan nan nan 1 0 nan nan nan nan nan nan nan nan nan nan nan nan nan nan nan nan 7 7 11 15 15 18 20 22 22 23 26 30 30 32 36 38 42 42 43 45 46 46 49 48 51 51 54 56 56 59 63 69 69 72
nan nan nan nan nan nan nan nan nan nan nan nan nan nan nan nan nan nan nan nan nan nan nan nan nan nan nan nan nan nan nan nan 1 1 2 1 nan nan nan nan nan nan nan nan nan nan nan nan nan nan nan 4 10 10 12 14 14 17 19 22 22 24 28 28 28 32 37 41 43 43 44 48 49 49 51 51 51 51 55 58 58 60 63 66 66 67
nan nan nan nan nan nan nan nan nan nan nan nan nan nan nan nan nan nan nan nan nan nan nan nan nan nan nan nan nan nan nan nan 2 2 1 nan nan nan nan nan nan nan nan nan nan nan nan nan nan nan 0 5 9 9 12 13 13 16 19 22 22 25 26 28 28 33 38 43 44 44 46 47 50 50 50 52 51 51 51 54 54 56 56 56 56 60
nan nan nan nan nan nan nan nan nan nan nan nan nan nan nan nan nan nan nan nan nan nan nan nan nan nan nan nan nan nan nan nan 3 3 nan nan nan nan nan nan nan nan nan nan nan nan nan nan nan nan nan 1 7 7 10 15 15 18 20 22 22 23 25 28 28 34 39 43 44 44 46 48 50 50 48 49 49 49 50 52 52 52 56 54 54 58
nan nan nan nan nan nan nan nan nan nan nan nan nan nan nan nan nan nan nan nan nan nan nan nan nan nan nan nan nan nan nan 0 nan nan nan nan nan nan nan nan nan nan nan nan nan nan nan nan nan nan nan 2 9 9 13 16 16 18 19 21 21 22 24 29 29 35 41 43 46 46 45 44 45 45 45 43 43 43 47 50 50 54 56 57 57 63
nan nan nan nan nan nan nan nan nan nan nan nan nan nan nan nan nan nan nan nan nan nan nan nan nan nan nan nan nan nan nan nan nan nan nan nan nan nan nan nan nan nan nan nan nan nan nan nan nan nan nan 7 12 12 14 16 16 17 18 18 18 21 25 31 31 37 41 42 42 42 41 40 40 40 40 40 41 41 45 49 49 53 57 58 58 63
nan nan nan nan nan nan nan nan nan nan nan nan nan nan nan nan nan nan nan nan nan nan nan nan nan nan nan 2 4 4 nan nan nan nan nan nan nan nan nan nan nan nan nan nan nan nan nan nan nan nan nan 10 11 11 13 12 12 14 15 18 18 22 28 34 34 38 40 38 37 37 33 36 40 40 39 41 42 42 46 47 47 53 54 55 55 57
nan nan nan nan nan nan nan nan nan nan nan nan nan nan nan nan nan nan nan nan nan nan nan nan nan nan 0 nan nan nan nan nan nan nan nan nan nan nan nan nan nan nan nan nan nan nan nan nan nan nan nan 3 8 8 9 9 9 12 14 19 19 23 28 33 33 35 34 29 30 30 31 35 36 36 39 39 42 42 43 47 47 50 51 51 51 51
nan nan nan nan nan nan nan nan nan nan nan nan nan nan nan nan nan nan nan nan nan nan nan 0 0 1 nan nan nan nan nan nan nan nan nan nan nan nan nan nan nan nan nan nan nan nan nan nan nan nan nan nan 3 3 6 8 8 12 15 20 20 24 28 29 29 30 28 26 26 26 30 34 36 36 38 39 40 40 41 42 42 44 48 47 47 47
nan nan nan nan nan nan nan 1 6 6 2 nan nan nan nan nan 0 0 nan 1 1 2 3 1 1 nan nan nan nan nan nan nan nan nan nan nan nan nan nan nan nan nan nan nan nan nan nan nan nan nan nan nan nan nan 3 8 8 12 15 18 18 22 23 27 27 25 24 24 26 26 28 31 35 35 36 37 39 39 39 40 40 44 45 47 47 44
nan nan 3 7 7 13 22 27 32 32 38 30 10 10 5 4 4 4 6 8 8 4 0 nan nan nan nan nan nan nan nan nan nan nan nan nan nan nan nan nan nan nan nan nan nan nan nan nan nan nan nan nan nan nan 3 7 7 11 14 16 16 19 21 23 23 23 22 21 23 23 24 28 30 30 35 36 37 37 40 40 40 41 45 44 44 44
3 5 9 13 13 15 17 22 28 28 36 49 61 61 45 14 14 14 20 6 6 nan nan nan nan nan nan nan nan nan nan nan nan nan nan nan nan nan nan nan nan nan nan nan nan nan nan nan nan nan nan nan nan nan nan 5 5 9 10 13 13 16 20 21 21 20 18 18 20 20 22 24 26 26 30 33 36 36 40 40 40 42 44 34 34 13
3 4 6 9 9 9 13 19 29 29 40 54 64 64 47 21 23 23 14 nan nan nan nan nan nan nan nan nan nan nan nan nan nan nan nan nan nan nan nan nan nan nan nan nan nan nan nan nan nan nan nan nan nan nan nan 2 2 5 8 12 12 16 18 17 17 15 15 16 17 17 19 20 23 23 26 29 33 33 35 41 41 44 36 24 24 9
nan 0 5 8 8 13 19 20 33 33 44 43 42 42 40 7 nan nan nan nan nan nan nan nan nan nan nan nan nan nan nan nan nan nan nan nan nan nan nan nan nan nan nan nan nan nan nan nan nan nan nan nan nan nan nan nan nan nan nan 8 8 10 12 11 11 12 13 13 15 15 16 17 20 20 23 27 30 30 37 42 42 36 21 11 11 11
nan nan nan nan nan nan nan nan 0 0 34 46 45 45 19 nan nan nan nan nan nan nan nan nan nan nan nan nan nan nan nan nan nan nan nan nan nan nan nan nan nan nan nan nan nan nan nan nan nan nan nan nan nan nan nan nan nan nan nan nan nan nan 5 7 7 8 9 11 13 13 14 15 17 17 20 24 29 29 34 42 42 36 15 9 9 9
nan nan nan nan nan nan nan nan nan nan nan nan nan nan nan nan nan nan nan nan nan nan nan nan nan nan nan nan nan nan nan nan nan nan nan nan nan nan nan nan nan nan nan nan nan nan nan nan nan nan nan nan nan nan nan nan nan nan nan nan nan nan nan 1 1 2 1 6 8 8 9 11 14 14 17 22 28 28 35 42 42 39 19 10 10 14
3 2 0 nan nan nan nan nan nan nan nan nan nan nan nan nan nan nan nan nan nan nan nan nan nan nan nan nan nan nan nan nan nan nan 0 nan nan nan nan nan nan nan nan nan nan nan nan nan nan nan nan nan nan nan nan nan nan nan nan nan nan nan nan nan nan nan nan nan 0 0 6 7 11 11 13 19 25 25 34 40 40 45 45 14 14 16
2 4 1 nan nan nan nan nan nan nan nan nan nan nan nan nan nan nan nan nan nan nan nan nan nan nan nan nan nan nan nan nan nan nan nan nan nan nan nan nan nan nan nan nan nan nan nan nan nan nan nan nan nan nan nan nan nan nan nan nan nan nan nan nan nan nan nan nan nan nan nan nan 2 2 5 13 21 21 31 38 38 46 48 31 31 19
nan 3 1 nan nan nan nan nan nan nan nan nan nan nan nan nan nan nan nan nan nan nan nan nan nan nan nan nan nan nan nan nan nan nan 0 nan nan nan nan 0 0 nan 0 0 0 nan 0 nan nan 2 nan nan nan nan nan nan nan nan nan nan nan nan nan nan nan nan nan nan nan nan nan nan nan nan nan 6 19 19 30 37 37 43 44 52 52 34
2 5 nan nan nan nan nan nan nan nan nan nan nan nan nan nan nan nan nan nan nan nan nan nan nan nan nan nan nan nan nan nan nan nan 1 nan nan nan 0 1 1 nan 0 2 2 1 0 0 0 4 3 nan nan nan nan nan nan nan nan nan nan nan nan nan nan nan nan nan nan nan nan nan nan nan nan 9 21 21 29 33 33 36 41 44 44 43
1 nan nan nan nan nan nan nan nan nan nan nan nan nan nan nan nan nan nan nan nan nan nan nan nan nan nan nan nan nan nan nan nan nan 0 1 0 0 0 3 3 6 2 1 1 2 1 0 0 2 1 nan nan nan nan nan nan nan nan nan nan nan nan nan nan nan nan nan nan nan nan nan nan nan nan 10 13 13 21 28 28 28 32 35 35 38
nan nan nan nan nan nan nan nan nan nan nan nan nan nan nan nan nan nan nan nan nan nan nan nan nan nan nan nan nan nan nan nan nan nan nan 1 1 1 2 4 4 8 7 3 3 1 1 nan nan 0 nan nan 1 1 1 nan nan nan nan nan nan nan nan nan nan nan nan nan nan nan nan nan nan nan nan nan nan nan nan 0 0 9 17 21 21 30
nan nan nan nan nan nan nan nan nan nan nan nan nan nan nan nan nan nan nan nan nan nan nan nan nan nan nan nan nan nan nan nan nan nan nan nan nan nan 1 2 2 3 4 3 3 1 0 nan nan nan 0 0 0 0 nan nan nan nan nan nan nan nan nan nan nan nan nan nan nan nan nan nan nan nan nan nan nan nan nan nan nan 1 1 nan nan 11
nan nan nan nan nan nan nan nan nan nan nan nan nan nan nan nan nan nan nan nan nan nan nan nan nan nan nan nan nan nan nan nan nan nan nan nan nan nan nan nan nan 0 1 0 0 nan nan nan nan nan 4 1 1 1 0 nan nan nan 1 nan nan nan nan nan nan nan nan nan nan nan nan nan nan nan nan nan nan nan nan nan nan nan 0 nan nan nan
nan nan nan nan nan nan nan nan nan nan nan nan nan nan nan nan nan nan nan nan nan nan nan nan nan nan nan nan nan nan nan nan nan nan nan nan nan nan nan nan nan nan nan nan nan nan nan nan nan 1 2 3 3 3 2 0 0 4 7 0 0 nan nan nan nan nan nan nan nan nan nan nan 0 0 0 0 nan nan nan nan nan nan nan nan nan nan
nan nan nan nan nan nan nan nan nan nan nan nan nan nan nan nan nan nan nan nan nan nan nan nan nan nan nan nan nan nan nan nan nan nan nan nan nan nan nan nan nan nan nan nan nan nan nan 2 2 4 4 3 1 1 0 nan nan 2 2 0 0 nan nan nan nan nan nan nan nan nan 0 0 0 0 0 nan nan nan nan nan nan nan 2 nan nan nan
nan nan nan nan nan nan nan nan nan nan nan nan nan nan nan nan nan nan nan nan nan nan nan nan nan nan nan nan nan nan nan nan nan nan nan nan nan nan nan nan nan nan nan nan nan nan 1 9 9 6 4 2 1 1 1 0 0 0 0 0 0 0 nan nan nan nan nan nan nan nan nan nan nan nan nan nan nan nan nan nan nan 2 4 nan nan nan
nan nan nan nan nan nan nan nan nan nan nan nan nan nan nan nan nan nan nan nan nan nan nan nan nan nan nan nan nan nan nan nan nan nan nan nan nan nan nan nan nan nan nan nan nan 1 3 6 6 4 3 1 1 1 1 0 0 nan nan nan nan nan nan nan nan nan nan nan nan nan nan nan nan nan nan nan nan nan nan nan nan nan nan nan nan nan
nan nan nan nan nan nan nan nan nan nan nan nan nan nan nan nan nan nan nan nan nan nan nan nan nan nan nan nan nan nan nan nan nan nan nan 2 13 13 3 nan nan nan nan 1 1 2 4 4 4 3 2 2 3 3 2 0 0 nan 0 nan nan nan nan nan nan nan nan nan nan nan nan nan nan nan nan nan nan nan nan nan nan nan nan nan nan nan
nan nan nan nan nan nan nan nan nan nan nan nan nan nan nan nan nan nan nan nan nan nan nan nan nan nan nan nan nan nan nan nan nan nan nan nan nan nan nan 0 0 0 0 1 1 3 5 5 5 5 4 4 2 2 0 nan nan nan nan nan nan nan nan nan nan nan nan nan nan nan nan nan nan nan nan nan nan nan nan nan nan nan nan nan nan nan
nan nan nan nan nan nan nan nan nan nan nan nan nan nan nan nan nan nan nan nan nan nan nan nan nan nan nan nan nan nan nan nan nan nan nan nan nan nan nan nan nan 2 1 1 1 2 5 7 7 6 5 2 0 0 nan nan nan nan nan nan nan nan nan nan nan nan nan nan nan nan nan nan nan nan nan nan nan nan nan nan nan nan nan nan nan nan
nan nan nan nan nan nan nan nan nan nan nan nan nan nan nan nan nan nan nan nan nan nan 1 nan nan nan nan nan nan nan nan nan nan nan nan nan nan nan nan 0 0 0 2 4 4 7 4 2 2 2 2 1 0 0 nan nan nan nan nan nan nan nan nan nan nan nan nan nan nan nan nan nan nan nan nan nan nan nan nan nan nan nan nan nan nan nan
nan nan nan nan nan nan nan nan nan nan nan nan nan nan nan 0 8 8 0 nan nan nan nan nan nan nan nan nan nan nan nan nan nan nan nan nan nan nan nan 0 0 0 1 2 2 2 1 0 0 0 nan nan nan nan nan nan nan nan nan nan nan nan nan nan nan nan nan nan nan nan nan nan nan nan nan nan nan nan nan nan nan nan nan nan nan nan
nan nan nan nan nan nan nan nan nan nan nan nan nan nan nan nan nan nan nan nan nan nan nan nan nan nan nan nan nan nan nan nan nan nan nan nan nan nan nan nan nan 0 1 0 0 nan nan nan nan nan nan nan nan nan nan nan nan nan nan nan nan nan nan nan nan nan nan nan nan nan nan nan nan nan nan nan nan nan nan nan nan nan nan nan nan nan
nan nan nan nan nan nan nan nan nan nan nan 0 0 0 0 0 nan nan nan nan nan nan nan nan nan nan nan nan nan nan nan nan nan nan 0 nan nan nan 0 0 0 1 2 0 0 0 0 nan nan nan nan 3 nan nan nan nan nan nan nan nan nan nan nan nan nan nan nan nan nan nan nan nan nan nan nan nan nan nan nan nan nan nan nan nan nan nan
CIN
nan nan nan nan nan nan nan nan nan nan nan nan nan nan nan nan nan nan nan nan nan nan nan nan nan nan nan nan nan nan nan nan nan nan nan 0 0 0 0 0 0 0 0 0 0 0 0 0 0 0 0 0 0 0 0 0 0 0 0 0 0 0 0 0 0 0 0 0 0 0 0 0 0 0 0 0 0 0 0 0 0 0 0 0 0 0
nan nan nan nan nan nan nan nan nan nan nan nan nan nan nan nan nan nan nan nan nan nan nan nan nan nan nan nan nan nan nan nan nan nan nan 0 0 0 0 0 0 0 -0 nan nan nan 0 0 0 0 0 0 0 0 0 0 0 0 0 0 0 0 0 0 0 0 0 0 0 0 0 0 0 0 0 0 0 0 0 0 0 0 0 0 0 0
nan nan nan nan nan nan nan nan nan nan nan nan nan nan nan nan nan nan nan nan nan nan nan nan nan nan nan nan nan nan nan nan nan nan nan 0 0 0 0 0 0 0 nan nan nan nan 0 0 0 0 0 0 0 0 0 0 0 0 0 0 0 0 0 0 0 0 0 0 0 0 0 0 0 0 0 0 0 0 0 0 0 0 0 0 0 0
nan nan nan nan nan nan nan nan nan nan nan nan nan nan nan nan nan nan nan nan nan nan nan nan nan nan nan nan nan nan nan nan nan nan nan 0 0 0 0 0 0 nan nan nan nan nan 0 0 0 0 0 0 0 0 0 0 0 0 0 0 0 0 0 0 0 0 0 0 0 0 0 0 0 0 0 0 0 0 0 0 0 0 0 0 0 0
nan nan nan nan nan nan nan nan nan nan nan nan nan nan nan nan nan nan nan nan nan nan nan nan nan nan nan nan nan nan nan nan nan nan -1 -0 0 0 -0 -0 -0 nan nan nan nan 0 0 0 0 0 0 0 0 0 0 0 0 0 0 0 0 0 0 0 0 0 0 0 0 0 0 0 0 0 0 0 0 0 0 0 0 0 0 0 0 0
nan nan nan nan nan nan nan nan nan nan nan nan nan nan nan nan nan nan nan nan nan nan nan nan nan nan nan nan nan nan nan nan nan nan -1 -1 -1 -1 -1 nan nan nan 0 0 0 0 0 0 0 0 0 0 0 0 0 0 0 0 0 0 0 0 0 0 0 0 0 0 0 0 0 0 0 0 0 0 0 0 0 0 0 0 0 0 0 0
nan nan nan nan nan nan nan nan nan nan nan nan nan nan nan nan nan nan nan nan nan nan nan nan nan nan nan nan nan nan nan nan nan nan nan nan nan nan nan -0 -0 0 0 0 0 0 0 0 0 0 0 0 0 0 0 0 0 0 0 0 0 0 0 0 0 0 0 0 0 0 0 0 0 0 0 0 0 0 0 0 0 0 0 0 0 0
nan nan nan nan nan nan nan nan nan nan nan nan nan nan nan nan nan nan nan nan nan nan nan nan nan nan nan nan nan nan nan nan nan nan nan nan nan nan nan -0 -0 0 0 0 0 0 0 0 0 0 0 0 0 0 0 0 0 0 0 0 0 0 0 0 0 0 0 0 0 0 0 0 0 0 0 0 0 0 0 0 0 0 0 0 0 0
nan nan nan nan nan nan nan nan nan nan nan nan nan nan nan nan nan nan nan nan nan nan nan nan nan nan nan nan nan nan nan nan nan nan nan nan nan nan nan -2 -2 0 0 0 0 0 0 0 0 0 0 0 0 0 0 0 0 0 0 0 0 0 0 0 0 0 0 0 0 0 0 0 0 0 0 0 0 0 0 0 0 0 0 0 0 0
nan nan nan nan nan nan nan nan nan nan nan nan nan nan nan nan nan nan nan nan nan nan nan nan nan nan nan nan nan nan nan nan nan nan nan nan -1 -1 nan -15 -15 -12 0 0 0 0 0 0 0 0 0 0 0 0 0 0 0 0 0 0 0 0 0 0 0 0 0 0 0 0 0 0 0 0 0 0 0 0 0 0 0 0 0 0 0 0
nan nan nan nan nan nan nan nan nan nan nan nan nan nan nan nan nan nan nan nan nan nan nan nan nan nan nan nan nan nan nan nan nan nan nan nan nan nan -18 -19 -19 -10 -0 0 0 0 0 0 0 0 0 0 0 0 0 0 0 0 0 0 0 0 0 0 0 0 0 0 0 0 0 0 0 0 0 0 0 0 0 0 0 0 0 0 0 0
nan nan nan nan nan nan nan nan nan nan nan nan nan nan nan nan nan nan nan nan nan nan nan nan nan nan nan nan nan nan nan nan nan nan nan nan nan nan nan nan nan nan nan -8 -8 -3 0 0 0 0 0 0 0 0 0 0 0 0 0 0 0 0 0 0 0 0 0 0 0 0 0 0 0 0 0 0 0 0 0 0 0 0 0 0 0 0
nan nan nan nan nan nan nan nan nan nan nan nan nan nan nan nan nan nan nan nan nan nan nan nan nan nan nan nan nan nan nan nan nan nan nan nan nan nan nan nan nan nan nan nan nan nan nan -1 -1 -0 -0 -0 0 0 0 0 0 0 0 0 0 0 0 0 0 0 0 0 0 0 0 0 0 0 0 0 0 0 0 0 0 0 0 0 0 0
nan nan nan nan nan nan nan nan nan nan nan nan nan nan nan nan nan nan nan nan nan nan nan nan nan nan nan nan nan nan nan nan nan nan nan nan nan nan nan nan nan nan nan nan nan nan nan nan nan nan nan nan nan nan -3 -0 -0 0 0 0 0 0 0 0 0 0 0 0 0 0 0 0 0 0 0 0 0 0 0 0 0 0 0 0 0 0
nan nan nan nan nan nan nan nan nan nan nan nan nan nan nan nan nan nan nan nan nan nan nan nan nan nan nan nan nan nan nan nan nan nan nan nan nan nan nan nan nan nan nan nan nan nan nan nan nan nan nan nan nan nan -12 0 0 0 0 0 0 0 0 0 0 0 0 0 0 0 0 0 0 0 0 0 0 0 0 0 0 0 0 0 0 0
nan nan nan nan nan nan nan nan nan nan nan nan nan nan nan nan nan nan nan nan nan nan nan nan nan nan nan nan nan nan nan nan nan nan nan nan -39 -39 nan nan nan nan nan nan nan nan nan nan nan nan nan nan 0 0 -0 0 0 0 0 0 0 0 0 0 0 0 0 0 0 0 0 0 0 0 0 0 0 0 0 0 0 0 0 0 0 0
nan nan nan nan nan nan nan nan nan nan nan nan nan nan nan nan nan nan nan nan nan nan nan nan nan nan nan nan nan nan nan nan nan nan -20 -24 nan nan nan nan nan nan nan nan nan nan nan nan nan nan nan nan -0 -0 0 0 0 0 0 0 0 0 0 0 0 0 0 0 0 0 0 0 0 0 0 0 0 0 0 0 0 0 0 0 0 0
nan nan nan nan nan nan nan nan nan nan nan nan nan nan nan nan nan nan nan nan nan nan nan nan nan nan nan nan nan nan nan nan -19 -19 -10 -15 nan nan nan nan nan nan nan nan nan nan nan nan nan nan nan -1 0 0 0 0 0 0 0 0 0 0 0 0 0 0 0 0 0 0 0 0 0 0 0 0 0 0 0 0 0 0 0 0 0 0
nan nan nan nan nan nan nan nan nan nan nan nan nan nan nan nan nan nan nan nan nan nan nan nan nan nan nan nan nan nan nan nan -7 -7 -8 nan nan nan nan nan nan nan nan nan nan nan nan nan nan nan -5 0 0 0 0 0 0 0 0 0 0 0 0 0 0 0 0 0 0 0 0 0 0 0 0 0 0 0 0 0 0 0 0 0 0 0
nan nan nan nan nan nan nan nan nan nan nan nan nan nan nan nan nan nan nan nan nan nan nan nan nan nan nan nan nan nan nan nan -2 -2 nan nan nan nan nan nan nan nan nan nan nan nan nan nan nan nan nan -0 0 0 0 0 0 0 0 0 0 0 0 0 0 0 0 0 0 0 0 0 0 0 0 0 0 0 0 0 0 0 0 0 0 0
nan nan nan nan nan nan nan nan nan nan nan nan nan nan nan nan nan nan nan nan nan nan nan nan nan nan nan nan nan nan nan -6 nan nan nan nan nan nan nan nan nan nan nan nan nan nan nan nan nan nan nan -0 0 0 0 0 0 0 0 0 0 0 0 0 0 0 0 0 0 0 0 0 0 0 0 0 0 0 0 0 0 0 0 0 0 0
nan nan nan nan nan nan nan nan nan nan nan nan nan nan nan nan nan nan nan nan nan nan nan nan nan nan nan nan nan nan nan nan nan nan nan nan nan nan nan nan nan nan nan nan nan nan nan nan nan nan nan 0 0 0 0 0 0 0 0 0 0 0 0 0 0 0 0 0 0 0 0 0 0 0 0 0 0 0 0 0 0 0 0 0 0 0
nan nan nan nan nan nan nan nan nan nan nan nan nan nan nan nan nan nan nan nan nan nan nan nan nan nan nan -4 -4 -4 nan nan nan nan nan nan nan nan nan nan nan nan nan nan nan nan nan nan nan nan nan 0 0 0 0 0 0 0 0 0 0 0 0 0 0 0 0 0 0 0 0 0 0 0 0 0 0 0 0 0 0 0 0 0 0 0
nan nan nan nan nan nan nan nan nan nan nan nan nan nan nan nan nan nan nan nan nan nan nan nan nan nan -3 nan nan nan nan nan nan nan nan nan nan nan nan nan nan nan nan nan nan nan nan nan nan nan nan -2 0 0 0 0 0 0 0 0 0 0 0 0 0 0 0 0 0 0 0 0 0 0 0 0 0 0 0 0 0 0 0 0 0 0
nan nan nan nan nan nan nan nan nan nan nan nan nan nan nan nan nan nan nan nan nan nan nan -1 -1 -1 nan nan nan nan nan nan nan nan nan nan nan nan nan nan nan nan nan nan nan nan nan nan nan nan nan nan 0 0 0 0 0 0 0 0 0 0 0 0 0 0 0 0 0 0 0 0 0 0 0 0 0 0 0 0 0 0 0 0 0 0
nan nan nan nan nan nan nan -6 -2 -2 -11 nan nan nan nan nan -15 -15 nan -1 -1 -1 -14 -20 -20 nan nan nan nan nan nan nan nan nan nan nan nan nan nan nan nan nan nan nan nan nan nan nan nan nan nan nan nan nan 0 0 0 0 0 0 0 0 0 0 0 0 0 0 0 0 0 0 0 0 0 0 0 0 0 0 0 0 0 0 0 0
nan nan -1 0 0 0 0 0 0 0 0 0 -16 -16 -18 -11 -10 -10 -9 -11 -11 -21 -30 nan nan nan nan nan nan nan nan nan nan nan nan nan nan nan nan nan nan nan nan nan nan nan nan nan nan nan nan nan nan nan 0 0 0 0 0 0 0 0 0 0 0 0 0 0 0 0 0 0 0 0 0 0 0 0 0 0 0 0 0 0 0 0
0 0 0 0 0 0 0 0 0 0 0 0 0 0 -3 -6 -2 -2 -3 -18 -18 nan nan nan nan nan nan nan nan nan nan nan nan nan nan nan nan nan nan nan nan nan nan nan nan nan nan nan nan nan nan nan nan nan nan 0 0 0 0 0 0 0 0 0 0 0 0 0 0 0 0 0 0 0 0 0 0 0 0 0 0 0 0 0 0 -9
0 0 0 0 0 0 0 0 0 0 0 0 0 0 -1 -6 -1 -1 -7 nan nan nan nan nan nan nan nan nan nan nan nan nan nan nan nan nan nan nan nan nan nan nan nan nan nan nan nan nan nan nan nan nan nan nan nan 0 0 0 0 0 0 0 0 0 0 0 0 0 0 0 0 0 0 0 0 0 0 0 0 0 0 0 0 -3 -3 -16
nan -13 -2 0 0 0 0 -4 -0 -0 0 0 0 0 -2 -20 nan nan nan nan nan nan nan nan nan nan nan nan nan nan nan nan nan nan nan nan nan nan nan nan nan nan nan nan nan nan nan nan nan nan nan nan nan nan nan nan nan nan nan 0 0 0 0 0 0 0 0 0 0 0 0 0 0 0 0 0 0 0 0 0 0 0 -3 -16 -16 -15
nan nan nan nan nan nan nan nan -29 -29 0 0 0 0 -10 nan nan nan nan nan nan nan nan nan nan nan nan nan nan nan nan nan nan nan nan nan nan nan nan nan nan nan nan nan nan nan nan nan nan nan nan nan nan nan nan nan nan nan nan nan nan nan 0 0 0 0 0 0 0 0 0 0 0 0 0 0 0 0 0 0 0 0 -10 -15 -15 -15
nan nan nan nan nan nan nan nan nan nan nan nan nan nan nan nan nan nan nan nan nan nan nan nan nan nan nan nan nan nan nan nan nan nan nan nan nan nan nan nan nan nan nan nan nan nan nan nan nan nan nan nan nan nan nan nan nan nan nan nan nan nan nan -0 -0 0 -0 0 0 0 0 0 0 0 0 0 0 0 0 0 0 0 -3 -12 -12 -8
-19 -17 -16 nan nan nan nan nan nan nan nan nan nan nan nan nan nan nan nan nan nan nan nan nan nan nan nan nan nan nan nan nan nan nan -12 nan nan nan nan nan nan nan nan nan nan nan nan nan nan nan nan nan nan nan nan nan nan nan nan nan nan nan nan nan nan nan nan nan -3 -3 0 0 0 0 0 0 0 0 0 0 0 0 0 -10 -10 -8
-14 -9 -11 nan nan nan nan nan nan nan nan nan nan nan nan nan nan nan nan nan nan nan nan nan nan nan nan nan nan nan nan nan nan nan nan nan nan nan nan nan nan nan nan nan nan nan nan nan nan nan nan nan nan nan nan nan nan nan nan nan nan nan nan nan nan nan nan nan nan nan nan nan 0 0 0 0 0 0 0 0 0 0 0 0 0 -4
nan -7 -10 nan nan nan nan nan nan nan nan nan nan nan nan nan nan nan nan nan nan nan nan nan nan nan nan nan nan nan nan nan nan nan -6 nan nan nan nan -7 -7 nan -6 -6 -6 nan -5 nan nan 0 nan nan nan nan nan nan nan nan nan nan nan nan nan nan nan nan nan nan nan nan nan nan nan nan nan 0 0 0 0 0 0 0 0 0 0 0
-6 -4 nan nan nan nan nan nan nan nan nan nan nan nan nan nan nan nan nan nan nan nan nan nan nan nan nan nan nan nan nan nan nan nan -4 nan nan nan -5 -5 -5 nan -5 -3 -3 -4 -5 -4 -4 -0 0 nan nan nan nan nan nan nan nan nan nan nan nan nan nan nan nan nan nan nan nan nan nan nan nan 0 0 0 0 0 0 0 0 0 0 0
-6 nan nan nan nan nan nan nan nan nan nan nan nan nan nan nan nan nan nan nan nan nan nan nan nan nan nan nan nan nan nan nan nan nan -17 -15 -12 -12 -7 -4 -4 -2 -4 -4 -4 -3 -4 -3 -3 -1 -1 nan nan nan nan nan nan nan nan nan nan nan nan nan nan nan nan nan nan nan nan nan nan nan nan 0 0 0 0 0 0 0 0 0 0 0
nan nan nan nan nan nan nan nan nan nan nan nan nan nan nan nan nan nan nan nan nan nan nan nan nan nan nan nan nan nan nan nan nan nan nan -18 -11 -11 -6 -4 -4 -2 -2 -4 -4 -5 -4 nan nan -2 nan nan 0 0 -2 nan nan nan nan nan nan nan nan nan nan nan nan nan nan nan nan nan nan nan nan nan nan nan nan -19 -19 -0 0 0 0 0
nan nan nan nan nan nan nan nan nan nan nan nan nan nan nan nan nan nan nan nan nan nan nan nan nan nan nan nan nan nan nan nan nan nan nan nan nan nan -7 -3 -3 -4 -4 -5 -5 -5 -3 nan nan nan -2 -3 -4 -4 nan nan nan nan nan nan nan nan nan nan nan nan nan nan nan nan nan nan nan nan nan nan nan nan nan nan nan -10 -11 nan nan 0
nan nan nan nan nan nan nan nan nan nan nan nan nan nan nan nan nan nan nan nan nan nan nan nan nan nan nan nan nan nan nan nan nan nan nan nan nan nan nan nan nan -3 -3 -6 -6 nan nan nan nan nan -0 -3 -5 -5 -6 nan nan nan -4 nan nan nan nan nan nan nan nan nan nan nan nan nan nan nan nan nan nan nan nan nan nan nan -13 nan nan nan
nan nan nan nan nan nan nan nan nan nan nan nan nan nan nan nan nan nan nan nan nan nan nan nan nan nan nan nan nan nan nan nan nan nan nan nan nan nan nan nan nan nan nan nan nan nan nan nan nan -3 -4 -5 -4 -4 -4 -8 -8 0 0 -4 -4 nan nan nan nan nan nan nan nan nan nan nan -16 -16 -24 -20 nan nan nan nan nan nan nan nan nan nan
nan nan nan nan nan nan nan nan nan nan nan nan nan nan nan nan nan nan nan nan nan nan nan nan nan nan nan nan nan nan nan nan nan nan nan nan nan nan nan nan nan nan nan nan nan nan nan -1 -1 -2 -4 -7 -7 -7 -7 nan nan -3 -1 -7 -7 nan nan nan nan nan nan nan nan nan -14 -18 -21 -21 -20 nan nan nan nan nan nan nan -6 nan nan nan
nan nan nan nan nan nan nan nan nan nan nan nan nan nan nan nan nan nan nan nan nan nan nan nan nan nan nan nan nan nan nan nan nan nan nan nan nan nan nan nan nan nan nan nan nan nan -4 -1 -1 -3 -7 -11 -8 -8 -6 -5 -5 -6 -7 -5 -5 -5 nan nan nan nan nan nan nan nan nan nan nan nan nan nan nan nan nan nan nan -0 -0 nan nan nan
nan nan nan nan nan nan nan nan nan nan nan nan nan nan nan nan nan nan nan nan nan nan nan nan nan nan nan nan nan nan nan nan nan nan nan nan nan nan nan nan nan nan nan nan nan -4 -5 -3 -3 -7 -11 -12 -8 -8 -6 -7 -7 nan nan nan nan nan nan nan nan nan nan nan nan nan nan nan nan nan nan nan nan nan nan nan nan nan nan nan nan nan
nan nan nan nan nan nan nan nan nan nan nan nan nan nan nan nan nan nan nan nan nan nan nan nan nan nan nan nan nan nan nan nan nan nan nan -14 0 0 -19 nan nan nan nan -11 -11 -7 -4 -5 -5 -7 -10 -10 -7 -7 -6 -7 -7 nan -3 nan nan nan nan nan nan nan nan nan nan nan nan nan nan nan nan nan nan nan nan nan nan nan nan nan nan nan
nan nan nan nan nan nan nan nan nan nan nan nan nan nan nan nan nan nan nan nan nan nan nan nan nan nan nan nan nan nan nan nan nan nan nan nan nan nan nan -26 -26 -22 -19 -17 -17 -15 -9 -4 -4 -5 -6 -5 -7 -7 -8 nan nan nan nan nan nan nan nan nan nan nan nan nan nan nan nan nan nan nan nan nan nan nan nan nan nan nan nan nan nan nan
nan nan nan nan nan nan nan nan nan nan nan nan nan nan nan nan nan nan nan nan nan nan nan nan nan nan nan nan nan nan nan nan nan nan nan nan nan nan nan nan nan -20 -20 -20 -20 -19 -13 -10 -10 -8 -4 -4 -5 -5 nan nan nan nan nan nan nan nan nan nan nan nan nan nan nan nan nan nan nan nan nan nan nan nan nan nan nan nan nan nan nan nan
nan nan nan nan nan nan nan nan nan nan nan nan nan nan nan nan nan nan nan nan nan nan -8 nan nan nan nan nan nan nan nan nan nan nan nan nan nan nan nan -22 -22 -20 -16 -12 -12 -8 -13 -22 -22 -18 -10 -5 -3 -3 nan nan nan nan nan nan nan nan nan nan nan nan nan nan nan nan nan nan nan nan nan nan nan nan nan nan nan nan nan nan nan nan
nan nan nan nan nan nan nan nan nan nan nan nan nan nan nan -14 0 0 -12 nan nan nan nan nan nan nan nan nan nan nan nan nan nan nan nan nan nan nan nan -20 -20 -18 -17 -15 -15 -16 -18 -30 -30 -29 nan nan nan nan nan nan nan nan nan nan nan nan nan nan nan nan nan nan nan nan nan nan nan nan nan nan nan nan nan nan nan nan nan nan nan nan
nan nan nan nan nan nan nan nan nan nan nan nan nan nan nan nan nan nan nan nan nan nan nan nan nan nan nan nan nan nan nan nan nan nan nan nan nan nan nan nan nan -12 -11 -13 -13 nan nan nan nan nan nan nan nan nan nan nan nan nan nan nan nan nan nan nan nan nan nan nan nan nan nan nan nan nan nan nan nan nan nan nan nan nan nan nan nan nan
nan nan nan nan nan nan nan nan nan nan nan -11 -11 -11 -13 -19 nan nan nan nan nan nan nan nan nan nan nan nan nan nan nan nan nan nan -10 nan nan nan -13 -12 -12 -8 -5 -5 -5 -6 -5 nan nan nan nan -0 nan nan nan nan nan nan nan nan nan nan nan nan nan nan nan nan nan nan nan nan nan nan nan nan nan nan nan nan nan nan nan nan nan nan
Wind_Speed
1 1 1 0 1 2 3 3 3 4 5 5 4 4 4 5 5 5 7 7 7 7 7 7 7 8 9 12 15 17 18 19 20 20 20 20 21 21 21 21 22 22 23 24 24 25 25 26 26 26 27 27 27 27 27 27 28 28 28 28 28 28 28 28 28 28 28 28 28 28 28 28 28 28 28 28 28 29 29 28 28 28 28 28 29 29
1 1 1 1 1 2 3 3 3 3 5 5 5 5 5 5 5 5 5 6 6 6 6 7 7 7 8 10 13 16 17 19 19 20 20 20 21 21 21 22 22 23 24 25 25 26 26 26 27 27 27 27 27 27 27 28 28 28 28 28 28 28 28 28 28 28 28 28 28 28 28 28 28 28 29 29 29 29 29 29 29 29 29 29 29 29
1 1 1 1 1 2 3 4 3 3 4 5 5 6 6 6 6 6 5 5 6 6 6 6 7 7 8 9 12 15 16 18 19 20 20 20 20 21 21 22 22 23 24 25 26 27 27 27 27 27 27 27 27 27 27 28 28 28 28 28 28 28 28 28 27 27 27 28 28 28 28 28 28 29 29 29 29 29 29 29 29 29 29 29 29 29
1 1 2 1 2 2 4 4 4 4 4 5 6 6 6 6 6 6 6 6 6 6 6 6 7 7 7 7 9 12 16 17 19 19 20 20 20 20 21 22 23 24 25 26 26 27 27 28 28 28 28 28 28 28 28 28 28 28 28 28 28 28 27 27 27 28 28 28 28 28 28 29 29 29 29 29 29 29 29 29 29 29 29 29 29 29
1 2 2 1 2 3 3 3 4 4 4 5 5 6 6 5 5 5 6 6 6 6 6 6 6 6 6 6 8 11 15 17 18 19 19 19 20 20 21 22 23 24 25 26 27 27 27 28 28 28 28 28 28 28 28 28 28 28 28 28 28 28 28 28 28 28 28 28 29 29 29 29 29 29 29 29 29 29 29 28 28 28 29 29 29 29
2 2 2 1 2 2 3 3 3 4 4 4 5 5 5 5 5 5 5 5 5 5 5 5 5 6 6 6 8 11 14 16 17 17 18 18 19 20 21 22 23 24 25 26 26 27 27 27 28 28 28 28 28 29 29 29 29 29 29 29 29 29 29 29 29 29 29 29 29 29 29 28 28 28 28 28 28 28 28 28 28 29 29 29 29 29
2 1 1 1 2 2 3 3 4 4 4 4 4 4 4 4 4 5 5 5 5 5 5 5 5 5 6 6 8 10 11 12 13 14 15 16 17 19 20 21 22 24 25 25 26 26 27 27 27 27 28 28 29 29 30 30 30 30 30 30 29 29 29 29 29 29 29 29 29 29 28 28 28 28 28 28 28 28 28 28 29 29 29 29 30 30
3 2 2 2 2 3 3 3 4 4 4 4 4 4 4 4 4 4 5 5 4 4 4 4 4 4 4 4 5 6 7 7 8 9 11 12 14 16 18 20 21 23 24 25 25 25 26 26 26 27 28 29 29 30 30 31 31 31 30 30 30 30 29 29 29 29 29 29 29 28 28 28 28 28 28 28 28 28 29 29 29 29 30 30 30 30
3 3 3 3 3 3 4 4 4 4 4 4 4 4 5 4 4 4 4 4 4 3 3 3 4 4 3 3 3 4 5 6 6 7 8 8 10 12 15 17 20 21 23 23 24 24 25 25 26 27 28 29 29 30 30 31 31 30 30 30 30 29 29 29 29 29 29 29 28 28 28 28 28 28 28 29 29 29 29 29 29 29 30 30 30 30
4 4 4 3 3 3 4 5 4 4 4 4 4 4 4 4 5 5 5 4 3 3 2 3 4 4 4 3 3 3 5 6 8 10 11 11 12 14 15 16 17 18 21 22 23 23 24 25 26 27 28 29 29 30 30 30 30 30 29 29 29 29 29 29 29 29 28 28 28 28 28 29 29 29 29 29 29 29 29 29 29 29 30 30 30 30
3 3 3 3 3 3 4 4 4 3 3 2 3 3 3 3 4 5 6 5 5 4 3 3 3 4 5 4 4 3 4 5 6 8 10 12 14 16 16 16 16 17 19 20 21 22 23 25 26 27 27 28 28 28 28 28 28 28 28 28 28 28 28 28 28 28 28 28 28 29 29 29 30 30 30 30 30 30 30 29 29 29 29 30 30 30
3 3 3 3 3 3 3 3 3 2 2 2 3 3 3 3 3 3 5 6 6 6 5 4 4 3 4 4 4 4 4 4 5 5 6 7 9 10 11 11 12 13 15 16 17 19 22 24 25 25 26 26 26 26 26 26 26 27 27 27 28 28 28 28 28 28 28 28 29 29 29 30 30 30 30 30 30 30 30 30 30 30 30 30 30 30
3 3 2 3 2 2 2 2 2 2 2 3 3 4 4 3 3 3 4 5 6 6 6 5 4 4 3 3 3 4 4 4 5 5 5 5 5 5 6 6 7 8 9 10 11 13 17 20 22 22 23 23 24 24 25 25 25 26 26 27 27 27 27 27 28 28 28 28 29 29 30 30 30 30 30 30 30 30 30 30 30 30 30 30 30 30
3 3 2 3 3 2 2 2 3 3 3 3 3 4 4 4 3 3 4 5 5 5 5 5 5 4 3 3 3 3 3 4 4 5 5 5 5 5 5 6 6 7 8 9 9 10 13 15 16 16 19 20 21 22 21 23 24 25 26 26 27 27 27 27 28 28 28 29 29 29 30 30 30 30 30 30 31 31 31 31 30 30 30 30 30 30
3 3 3 3 3 3 2 3 3 3 3 3 3 3 4 4 4 4 4 5 5 5 4 5 5 5 3 3 2 2 3 4 4 5 6 6 6 6 6 7 7 7 7 9 9 10 12 12 11 11 13 15 16 18 20 22 24 25 26 26 27 27 27 27 28 28 28 29 29 29 30 30 30 30 30 30 30 30 30 30 30 30 30 30 31 31
2 2 3 3 3 3 3 3 3 4 4 4 3 4 4 4 4 4 4 5 5 5 4 5 6 5 4 3 2 2 3 4 4 6 8 8 6 5 6 7 8 8 8 8 9 9 9 9 10 10 11 14 17 20 23 23 25 26 26 27 27 27 27 27 28 28 28 29 29 30 30 30 30 30 30 30 30 30 30 30 30 30 30 30 30 30
2 2 3 3 4 4 3 3 3 3 3 3 3 3 4 4 4 4 4 4 4 4 4 4 5 5 5 3 2 2 3 4 5 7 8 8 6 5 6 6 8 9 8 8 8 8 9 9 9 9 10 14 18 22 24 24 25 26 26 27 27 27 27 28 28 28 29 29 29 30 30 30 30 30 30 30 29 29 29 29 29 29 30 30 30 30
2 2 2 3 3 3 3 3 3 3 3 3 4 4 3 3 4 4 4 3 4 4 4 4 4 4 5 5 4 3 4 5 6 7 8 8 7 6 5 6 7 8 8 9 8 8 8 8 9 9 12 18 21 23 24 25 26 26 27 27 27 27 28 28 28 28 29 29 29 29 29 29 29 29 29 29 29 29 29 29 29 29 29 29 29 30
2 2 3 3 3 3 3 3 3 3 3 3 3 4 4 4 4 3 4 3 3 4 4 4 4 4 5 6 6 5 5 5 6 6 7 8 8 6 5 6 6 7 8 8 8 8 8 8 10 13 17 20 22 24 25 25 26 26 27 27 27 28 28 28 28 29 29 29 29 29 29 29 28 28 28 28 29 29 29 29 29 30 30 30 30 30
3 3 3 3 3 3 3 3 3 3 3 3 4 4 4 4 4 4 4 3 3 3 4 4 5 5 5 6 6 6 5 5 5 6 7 8 9 7 6 6 7 7 8 8 7 7 8 8 10 12 16 19 21 23 24 25 26 26 27 27 27 28 28 28 29 29 29 29 29 28 28 28 28 28 28 28 29 29 29 30 30 30 30 30 30 30
4 4 3 3 2 3 3 3 3 3 3 4 4 4 4 4 4 4 4 3 4 4 4 5 6 6 5 6 6 6 5 5 5 6 6 7 8 7 5 6 6 8 9 8 8 8 8 9 9 10 13 17 21 23 24 25 26 26 27 27 28 28 28 28 28 28 28 28 28 27 27 28 28 28 29 29 29 29 29 29 29 29 29 29 29 29
4 4 3 3 2 3 4 3 4 4 4 4 4 4 4 3 4 4 4 4 4 5 5 6 7 7 6 7 7 6 4 4 4 5 6 7 9 8 6 6 6 8 9 8 8 8 8 9 9 10 13 18 21 23 25 25 26 27 27 27 28 28 28 28 28 27 27 27 27 27 28 28 28 29 29 29 29 29 29 29 29 29 29 29 29 29
4 4 4 4 4 4 4 4 4 4 3 3 3 4 3 3 4 4 4 4 5 6 7 8 8 7 7 6 6 5 4 4 4 5 6 8 9 9 6 6 7 8 8 8 8 8 8 8 8 9 12 18 21 22 24 25 26 27 27 27 27 27 27 27 27 26 26 27 27 28 28 28 29 29 29 29 28 28 28 28 28 28 28 28 28 28
5 5 5 4 4 4 4 4 4 4 3 4 4 4 4 5 5 6 5 5 6 7 7 7 7 7 5 5 5 4 4 4 4 4 5 7 8 8 6 6 8 10 10 9 8 8 9 8 8 8 9 15 19 22 24 25 26 26 27 27 26 26 26 26 26 26 26 27 28 28 28 28 28 28 28 28 28 28 28 28 28 28 28 28 28 28
5 5 5 5 5 6 6 6 6 6 5 5 5 5 5 7 7 7 7 7 7 7 6 6 6 5 5 5 5 5 4 4 4 3 4 5 7 7 7 6 7 9 10 9 8 8 9 9 9 8 8 12 16 20 23 24 25 25 26 26 25 25 25 26 26 26 27 27 28 28 28 28 28 28 28 28 28 28 28 28 28 28 28 29 28 28
7 7 7 8 10 11 13 13 13 13 12 9 7 6 6 6 7 7 6 6 5 5 5 5 5 6 6 6 6 5 4 4 3 3 3 5 6 7 7 5 6 8 10 9 8 8 9 10 10 9 8 10 13 17 20 22 24 24 25 25 25 25 25 26 26 26 27 27 27 27 27 27 27 27 27 27 27 28 28 28 28 28 28 28 27 26
12 12 13 14 15 16 17 17 18 18 19 17 14 11 8 6 6 6 6 4 4 4 4 6 7 7 7 6 6 6 5 4 3 3 3 4 6 7 6 5 6 7 10 9 9 9 11 11 11 10 9 9 10 13 17 20 22 23 24 24 25 25 25 25 26 26 26 26 27 27 27 27 27 27 27 27 27 27 28 28 28 28 27 25 23 20
13 14 14 15 16 16 17 18 18 19 19 19 19 17 12 7 6 6 6 4 4 4 5 6 7 8 7 7 6 6 6 4 4 3 3 3 5 6 6 6 6 7 9 9 9 10 11 10 9 9 8 8 8 10 14 17 20 21 22 23 24 24 25 25 25 25 26 26 26 26 26 26 26 26 27 27 27 27 27 28 28 27 24 20 15 12
11 12 13 14 15 15 16 16 16 16 17 17 18 16 11 6 5 5 5 4 4 5 6 7 7 7 7 7 7 6 6 5 3 2 2 3 4 6 6 6 6 7 8 8 9 9 8 7 6 6 7 8 9 9 10 13 15 17 18 20 22 22 23 23 24 25 25 25 26 26 26 26 26 26 26 26 27 27 27 27 26 23 18 14 11 10
6 7 8 9 10 11 11 10 10 11 13 15 15 13 9 5 4 4 4 4 4 5 6 7 7 6 6 7 7 7 5 4 3 2 3 4 5 6 6 7 7 6 6 7 7 8 7 6 5 4 6 8 9 9 9 10 11 11 12 15 16 17 20 21 23 24 24 25 25 25 25 26 26 26 26 26 26 26 26 27 24 19 13 11 10 10
4 4 4 5 5 6 6 5 6 7 9 10 10 9 7 5 4 4 4 4 4 5 6 6 6 5 5 6 6 6 5 4 3 3 4 4 5 6 6 7 7 6 5 5 6 7 9 7 6 5 6 8 9 10 10 9 9 9 8 9 10 12 16 19 21 22 22 23 24 24 25 25 25 26 26 26 26 26 26 26 23 18 12 11 10 10
4 4 3 4 4 4 4 4 4 4 5 5 5 5 5 5 5 4 4 4 4 4 4 5 5 5 5 5 6 7 6 5 5 5 5 5 5 6 6 7 7 6 5 4 5 6 8 8 7 7 7 8 9 9 10 9 9 8 8 8 8 9 14 16 17 18 18 20 21 23 23 24 24 25 25 25 25 25 25 26 23 19 13 11 10 10
4 4 4 4 4 4 4 3 3 3 3 4 4 4 5 5 5 5 4 4 3 3 3 4 4 5 5 6 7 7 7 6 6 7 7 6 5 5 5 6 7 7 6 5 5 6 6 8 8 8 9 9 8 8 9 9 9 8 8 7 7 8 12 13 13 13 14 15 17 18 20 21 22 23 23 24 24 24 25 25 24 22 17 13 11 11
4 5 5 5 4 4 3 3 3 3 4 4 4 4 4 4 4 4 3 3 2 2 2 2 3 4 5 6 7 7 7 6 7 8 8 6 5 6 6 7 8 8 7 6 6 6 6 8 9 9 9 9 8 8 8 8 8 8 6 6 7 7 9 10 10 10 11 12 12 12 14 15 16 18 20 21 22 23 24 25 25 24 22 16 13 12
5 6 6 4 3 3 3 3 3 4 4 4 4 4 4 3 3 2 2 1 1 1 1 1 2 3 4 5 7 8 8 7 7 8 8 7 6 6 7 7 7 7 8 7 7 6 6 8 10 10 9 10 9 8 7 7 7 7 6 7 7 7 8 8 8 9 10 10 10 10 10 10 11 13 14 17 20 22 24 25 25 25 24 21 18 15
5 5 4 3 3 2 3 3 4 4 4 4 4 3 3 2 2 2 1 1 1 1 2 2 2 3 3 5 7 9 10 9 8 9 9 8 7 7 7 7 7 8 8 8 8 7 7 8 10 11 11 11 10 9 7 7 7 7 7 7 8 8 8 8 8 8 8 9 9 9 9 9 10 11 12 17 20 22 24 24 24 24 24 23 22 20
5 4 3 2 2 3 3 3 3 3 3 3 3 3 2 2 2 1 1 1 1 2 3 4 4 4 5 6 7 8 10 9 9 9 10 9 8 7 8 7 8 8 8 8 8 8 8 9 10 10 10 10 9 8 8 8 8 8 8 8 8 8 8 8 7 7 7 8 9 10 10 10 10 11 12 17 19 20 21 22 22 22 23 23 23 23
3 2 2 2 2 2 3 3 3 3 3 3 3 2 2 2 2 2 2 2 2 3 3 4 4 6 8 9 9 9 10 10 10 10 10 9 8 8 8 8 8 8 7 8 8 8 8 9 10 10 9 9 9 10 10 10 10 10 9 9 9 8 8 7 6 6 6 8 10 11 11 11 10 10 11 13 13 13 13 13 15 17 19 20 21 22
2 2 2 2 2 2 2 3 3 3 3 2 2 2 2 2 2 2 2 2 3 3 4 4 5 5 7 8 10 11 11 11 10 10 10 9 8 8 9 9 9 9 8 8 8 8 8 9 9 9 9 9 10 10 10 10 10 11 11 11 10 9 7 6 6 7 7 8 9 10 10 10 9 9 10 10 10 10 11 11 12 14 15 14 15 17
2 2 2 3 3 3 3 3 3 3 2 2 2 2 2 2 2 2 2 3 3 4 4 4 5 5 6 7 8 9 9 8 9 9 8 8 7 7 8 9 9 9 8 8 8 8 8 9 10 10 10 10 10 10 10 10 10 11 12 11 9 8 8 8 7 7 6 6 7 8 9 9 9 10 10 10 10 9 10 10 10 12 13 12 11 12
2 2 3 3 3 3 3 3 3 2 1 1 1 1 2 2 3 3 3 3 3 4 4 4 5 6 6 6 6 7 7 8 8 8 8 8 9 9 9 9 9 9 9 9 8 8 9 9 10 10 10 10 11 11 12 11 12 13 13 11 11 11 11 11 9 8 7 6 7 8 10 11 11 11 10 10 10 9 9 10 11 12 12 10 9 9
3 3 3 3 3 2 2 2 1 1 1 1 1 2 2 2 2 3 3 4 4 4 4 4 5 6 7 6 6 6 6 7 7 8 9 10 10 10 9 9 9 8 8 9 9 9 9 10 10 10 10 9 10 10 11 12 12 12 11 11 11 12 12 10 8 6 6 7 8 9 11 11 11 10 11 11 10 10 10 10 12 13 12 10 9 8
4 3 3 3 2 2 2 1 1 1 1 1 1 2 2 2 2 3 4 4 5 5 5 5 5 6 7 8 7 6 5 6 7 8 9 9 10 10 10 10 9 9 8 8 9 9 9 10 10 9 9 9 10 11 12 12 12 11 10 10 11 10 8 8 7 6 7 8 9 9 10 10 10 10 10 10 10 10 10 11 12 13 12 10 9 8
3 3 2 2 2 1 1 1 1 1 1 2 2 2 2 2 3 4 4 4 5 5 5 4 5 6 7 8 8 7 5 5 6 7 8 9 9 9 9 9 9 9 8 8 8 8 8 9 9 9 9 9 10 11 11 12 11 11 10 10 10 10 9 8 9 9 9 9 9 8 9 9 9 10 10 10 10 9 9 9 9 9 9 9 9 9
2 2 2 1 1 1 1 1 2 2 2 2 2 3 3 3 3 4 4 4 5 5 4 4 5 5 6 7 7 7 6 6 6 6 6 8 10 12 10 9 8 8 8 8 8 8 8 8 9 9 8 9 9 10 11 11 11 11 12 11 11 10 10 9 9 10 10 10 10 9 9 8 8 9 10 10 10 9 9 9 9 9 9 8 8 8
2 1 1 1 1 1 2 2 2 3 3 3 3 3 3 3 3 3 4 5 5 5 5 4 4 5 7 7 7 7 7 7 6 6 5 6 6 7 7 7 7 7 7 7 8 8 8 9 9 9 9 9 10 10 11 11 11 11 11 11 10 9 9 9 9 9 9 10 10 9 8 8 8 9 10 11 11 10 9 9 9 9 9 9 8 8
1 1 2 2 2 2 3 3 3 3 4 4 4 4 3 3 3 3 4 4 4 5 5 4 5 6 7 7 7 7 8 8 8 7 6 6 6 6 6 6 7 8 7 8 8 9 9 9 9 9 9 10 10 11 11 10 10 10 10 10 9 9 9 9 8 8 8 8 7 7 7 8 8 9 11 11 11 10 9 9 8 8 8 8 8 8
2 2 2 2 3 3 4 3 3 3 4 4 4 4 4 4 4 5 4 4 4 4 5 5 5 6 8 8 7 7 8 9 9 8 7 6 6 6 6 6 6 7 7 8 9 9 9 9 9 9 9 10 11 11 11 10 9 9 8 8 8 9 10 10 9 7 6 6 6 6 7 7 8 9 11 11 11 10 9 9 8 8 7 7 8 8
2 3 3 3 3 4 4 3 3 4 4 4 4 4 4 5 6 7 5 4 4 4 4 5 6 7 7 7 7 8 9 9 8 8 7 6 6 5 5 5 5 6 6 7 7 7 8 9 9 10 9 10 10 10 11 10 9 8 7 7 7 8 9 9 8 7 6 6 7 7 6 6 6 7 9 10 11 11 11 10 9 7 6 6 7 8
3 3 3 3 3 4 4 3 4 4 4 5 5 5 4 4 4 4 4 4 4 4 4 5 6 7 8 8 8 8 8 8 8 7 7 6 5 5 5 6 6 6 7 6 6 6 6 6 6 8 10 11 11 10 9 9 9 8 7 6 6 6 6 7 7 6 6 7 8 8 7 6 6 6 7 9 10 12 12 11 10 8 7 6 7 8
4 4 3 3 3 3 3 3 4 4 5 5 5 5 5 4 4 4 4 4 4 4 5 5 6 7 8 8 8 8 8 8 8 7 7 6 5 6 6 6 6 7 7 6 6 6 5 5 5 5 7 10 11 10 7 6 6 7 7 6 5 5 5 6 6 7 8 8 8 7 7 7 7 6 6 7 8 10 12 12 11 10 8 8 8 9
Wind_Direction
249 265 271 299 301 290 282 279 285 290 291 290 289 288 288 288 286 283 282 283 282 281 281 280 279 279 280 283 285 287 289 291 293 295 297 298 299 301 302 303 304 305 306 307 308 308 309 309 309 308 308 307 307 306 305 305 304 304 303 303 302 302 301 301 301 300 300 300 300 300 300 300 300 300 299 299 300 300 300 300 299 299 299 298 297 297
280 287 285 293 286 284 282 281 277 278 284 288 290 291 292 292 291 289 286 281 277 275 277 278 279 277 276 278 282 286 288 290 293 295 297 298 300 301 303 304 305 306 307 308 308 308 309 308 308 308 307 306 306 305 304 304 303 303 302 302 301 301 301 300 300 300 300 300 300 300 300 300 300 300 300 301 301 301 301 300 300 299 299 298 298 298
285 291 281 274 271 270 276 282 276 269 271 280 285 288 290 291 291 291 289 284 279 275 273 274 277 278 276 276 281 284 287 290 292 295 297 298 300 302 304 305 306 307 307 308 308 308 308 308 307 307 306 306 305 304 304 303 303 303 302 302 301 301 300 300 300 300 300 300 301 301 301 301 301 301 301 301 301 301 300 300 300 299 299 299 298 298
247 264 271 271 260 255 256 266 271 271 271 276 281 284 286 286 286 284 282 281 280 277 274 271 272 274 276 275 279 283 286 289 292 294 297 299 301 303 304 305 306 306 307 307 306 306 307 306 306 306 305 305 305 304 304 304 303 303 303 302 302 301 301 301 301 301 301 301 302 302 301 301 301 301 301 301 300 300 300 300 300 300 300 299 299 299
234 241 255 262 264 260 253 257 267 275 279 279 280 280 280 278 278 278 278 276 276 276 275 271 269 269 273 275 279 282 285 289 291 294 297 300 302 304 305 305 305 305 305 305 305 305 305 304 304 304 305 304 305 304 304 304 304 304 303 303 303 303 303 303 302 302 302 302 302 302 301 301 300 300 300 300 300 300 300 300 300 300 300 300 300 300
242 232 239 252 261 268 274 273 277 281 285 281 277 273 270 269 270 273 275 275 274 273 273 271 270 269 271 273 277 281 284 288 292 295 299 301 303 304 304 304 304 303 303 303 302 302 302 303 303 303 304 304 305 305 305 305 305 305 304 304 304 304 304 303 303 303 302 302 301 301 300 300 300 300 300 300 300 300 301 301 301 301 301 301 301 301
257 247 241 260 269 273 280 279 278 278 280 281 279 275 269 265 263 264 265 267 270 273 276 274 272 270 269 270 273 278 283 288 293 297 300 302 302 302 302 302 301 301 300 300 300 300 300 301 302 302 303 304 305 305 305 305 305 305 304 304 304 304 303 303 302 302 301 301 300 300 299 300 300 300 300 301 301 302 302 302 302 302 302 301 301 300
268 272 267 272 278 281 279 274 269 264 264 271 277 281 280 273 267 264 262 265 268 272 277 278 276 272 267 266 270 276 282 289 293 296 299 300 299 299 299 299 298 298 298 298 298 298 299 300 301 302 303 304 304 304 305 304 304 304 304 304 303 303 302 302 301 301 300 300 300 300 300 300 301 301 302 302 303 303 303 303 303 302 302 301 301 300
259 270 271 262 267 276 283 277 265 253 248 254 263 272 283 287 286 282 277 275 272 270 275 282 286 285 278 275 278 283 287 289 291 294 296 296 296 297 297 296 296 296 296 296 297 297 298 299 300 302 302 303 303 303 303 303 303 303 303 302 302 302 301 301 300 300 300 300 300 300 301 302 302 303 303 303 304 303 303 303 303 302 302 301 301 301
248 257 267 262 256 258 269 274 268 255 239 243 248 257 270 286 293 295 294 287 281 276 276 289 295 297 296 293 291 291 292 291 292 293 295 295 295 295 294 294 294 294 294 295 296 298 299 299 300 301 301 301 301 301 301 301 301 301 301 301 301 300 300 300 300 300 300 300 301 302 302 303 304 304 304 304 304 304 303 303 303 303 302 302 302 301
249 249 256 261 256 249 247 258 262 260 251 261 266 266 263 271 284 294 299 297 296 296 295 294 295 299 302 302 299 295 294 293 292 293 294 293 293 293 292 292 292 293 294 295 297 298 299 299 299 299 299 299 299 299 299 299 299 299 299 299 299 299 299 299 299 300 300 301 302 303 303 304 304 304 304 304 304 304 304 304 304 303 303 302 302 301
248 250 250 255 257 257 253 261 268 280 296 303 302 298 288 273 275 287 296 298 301 304 304 299 295 293 295 299 299 298 295 292 292 293 292 291 291 291 291 292 292 294 295 296 297 297 298 297 297 297 297 297 297 297 297 297 297 297 297 297 297 298 298 299 299 300 301 302 303 303 304 304 304 304 304 305 305 305 305 304 304 304 303 303 302 302
245 247 252 258 261 267 276 286 296 303 307 301 295 292 290 289 291 293 292 294 297 301 303 302 299 295 289 288 291 295 295 293 292 291 292 292 292 292 293 293 294 295 296 296 295 295 296 296 295 295 295 295 295 295 295 295 295 295 295 296 296 297 298 299 300 301 301 302 303 303 304 304 304 304 305 305 305 305 305 304 304 303 303 302 302 302
246 251 257 264 268 273 280 288 292 292 291 286 283 282 284 293 299 300 296 293 294 297 300 298 298 297 294 288 283 283 291 293 295 294 293 293 296 298 299 296 295 295 296 294 293 292 293 294 294 294 294 293 293 293 293 293 294 294 295 296 296 297 298 299 300 301 302 302 303 303 304 304 304 304 304 304 304 304 304 304 303 303 302 302 301 301
242 249 259 264 268 271 276 281 284 284 282 283 285 288 293 297 299 299 296 295 298 301 303 298 296 293 289 283 281 284 292 295 298 299 297 296 298 302 302 297 294 293 293 292 291 291 293 292 292 291 291 291 291 291 292 292 293 295 295 296 297 298 299 300 301 302 302 303 303 303 304 304 304 304 304 303 303 303 303 302 302 301 301 301 300 300
234 241 254 263 268 270 271 277 280 282 284 286 290 294 299 298 298 298 296 296 300 305 308 306 304 300 289 280 280 293 302 300 299 300 299 297 298 301 301 297 294 292 291 290 290 291 293 290 289 288 289 289 290 291 292 293 295 296 297 298 299 299 300 301 302 302 303 303 303 303 303 303 303 303 303 302 302 302 301 301 301 300 300 300 300 300
233 241 253 263 270 273 273 273 275 279 285 290 291 292 292 293 296 299 298 301 304 307 307 308 308 307 304 303 302 303 311 306 302 298 296 295 295 297 296 293 292 292 292 290 290 291 292 290 289 288 288 290 291 293 294 295 296 297 298 299 300 300 301 302 302 303 303 303 303 303 303 302 302 302 302 301 301 301 301 301 301 301 301 301 301 301
242 246 258 266 271 275 278 280 281 283 287 290 293 294 293 293 297 301 301 303 305 305 304 302 300 300 303 304 304 308 318 307 302 298 294 291 292 294 294 289 288 289 291 290 290 290 291 290 290 290 290 293 294 295 296 297 298 298 299 300 300 301 302 302 302 303 303 303 302 302 302 302 301 301 301 302 302 303 303 303 304 304 304 304 304 304
250 250 258 265 270 276 281 282 284 286 290 293 300 304 303 302 302 302 299 297 295 294 295 295 292 290 290 290 295 304 314 306 300 297 294 293 294 297 300 294 291 290 290 290 291 292 292 290 290 291 292 295 296 297 297 298 298 299 299 300 301 302 302 303 303 303 303 302 302 302 301 302 302 302 303 304 305 306 306 306 306 306 305 305 305 304
252 251 250 258 269 276 276 271 272 279 290 302 308 308 303 303 301 297 292 289 286 284 286 287 286 285 284 284 290 298 309 304 298 293 292 293 295 299 304 299 295 293 292 291 292 294 294 293 293 293 295 296 296 297 297 298 299 299 300 301 302 303 303 303 303 303 302 302 302 302 302 303 304 305 306 307 307 308 307 307 307 306 306 305 305 305
249 250 242 241 255 268 270 268 275 290 304 313 313 307 298 298 296 292 288 288 288 287 286 282 280 279 281 283 287 294 302 297 294 293 294 294 295 298 305 301 297 295 294 294 295 296 297 296 295 295 295 296 296 297 298 298 299 300 301 302 303 303 303 303 303 302 302 302 303 304 305 306 307 308 308 308 308 308 307 307 307 306 306 306 306 306
244 248 242 231 234 251 265 274 285 295 306 309 303 295 291 292 289 287 286 287 286 284 280 275 274 274 277 279 281 283 282 278 284 292 299 297 296 297 305 304 300 297 295 297 299 299 298 296 294 293 293 295 296 297 298 300 301 302 302 303 303 303 303 302 303 303 304 305 306 307 308 308 308 308 308 308 308 308 308 308 308 308 308 308 308 308
239 247 249 242 241 249 262 272 279 285 289 283 276 272 271 273 276 279 280 278 276 274 272 270 271 271 271 271 272 272 266 271 283 294 299 295 296 300 309 308 304 298 296 299 301 302 299 295 292 291 292 295 297 299 300 301 302 302 302 302 303 303 303 303 304 306 307 308 309 309 309 309 309 309 309 309 309 309 309 309 310 310 310 310 310 310
236 243 246 244 243 244 255 262 267 267 263 257 255 254 253 256 260 263 266 266 267 268 270 272 274 273 267 264 265 269 273 287 298 303 297 292 294 299 309 310 305 299 296 298 300 301 298 294 291 291 293 297 299 300 301 301 302 302 302 302 303 304 304 306 307 308 309 309 309 309 309 309 309 309 309 310 310 311 311 311 312 312 312 312 311 311
226 232 237 237 237 239 245 250 253 254 253 249 247 247 248 254 257 260 261 261 263 265 268 273 277 281 284 286 287 289 294 307 312 307 298 292 292 296 303 307 304 299 297 298 299 299 297 296 295 296 297 298 299 300 301 301 302 302 303 303 304 306 307 308 309 309 309 309 309 308 309 309 309 310 311 311 312 312 313 313 313 313 313 313 312 312
227 231 236 242 247 251 255 258 261 263 264 262 258 252 251 256 259 261 261 261 263 268 278 285 290 292 296 298 298 298 303 310 310 304 294 293 293 296 301 304 301 298 297 299 301 301 300 299 299 300 300 299 299 300 300 301 302 303 305 306 307 308 309 309 309 309 309 308 308 308 309 310 311 311 312 313 313 314 314 314 314 314 314 313 313 312
249 251 254 258 262 265 269 271 273 273 273 272 270 268 267 267 269 269 267 270 279 292 300 301 300 299 299 297 296 297 304 310 308 300 291 291 291 294 299 303 303 300 299 300 301 302 301 300 300 301 300 298 298 299 301 303 304 306 307 307 308 308 308 308 308 308 308 308 309 309 310 311 312 312 313 314 315 315 315 315 315 315 314 314 312 310
262 265 267 270 272 274 276 276 277 276 276 276 277 277 278 278 279 280 281 292 304 305 301 299 299 299 299 297 296 298 305 306 304 298 293 289 287 290 299 305 306 304 303 301 300 299 297 296 296 297 297 297 299 301 303 306 307 307 307 307 307 306 307 307 308 308 308 309 309 310 311 312 312 313 314 315 315 315 315 315 315 314 314 313 311 306
267 269 271 273 274 275 276 276 276 277 278 279 281 282 282 280 279 281 288 298 301 298 293 293 293 294 296 297 298 298 300 297 296 302 318 300 290 289 299 304 306 306 306 303 301 298 291 289 290 294 297 301 303 305 306 308 308 306 305 304 304 305 306 307 308 308 309 309 310 311 311 312 313 314 314 314 315 315 315 315 315 314 313 311 308 303
265 267 270 271 273 274 275 276 276 277 279 281 282 282 282 276 269 270 278 283 285 286 286 287 288 290 294 298 300 297 292 291 301 332 349 313 298 294 303 303 304 306 311 309 306 301 295 291 291 296 302 306 307 307 306 306 304 302 300 302 303 304 306 308 309 309 309 310 311 311 312 313 313 314 314 314 314 314 314 315 315 315 313 309 306 303
262 263 265 268 270 271 271 270 270 273 276 278 280 279 277 267 259 258 264 267 270 273 277 281 284 287 292 297 297 295 292 297 323 346 346 313 298 296 304 302 303 305 312 311 308 305 303 303 303 306 308 306 305 303 302 301 300 299 299 300 302 305 307 309 309 310 310 310 311 312 312 313 313 313 313 313 313 314 314 315 315 315 312 310 307 304
263 263 263 265 266 266 265 262 260 260 263 267 267 265 261 258 255 255 256 256 257 261 268 275 280 283 284 284 284 286 290 299 319 331 329 307 296 295 301 300 301 303 306 303 299 299 301 304 308 311 311 304 301 300 299 299 299 299 300 302 303 305 308 310 310 310 310 310 311 311 312 312 312 312 312 313 313 313 314 315 315 315 314 311 309 307
263 263 264 263 262 259 255 251 248 246 248 249 249 250 253 254 255 255 252 248 245 246 256 270 279 283 282 280 279 280 284 292 308 319 321 309 299 297 301 300 300 301 303 298 291 287 287 294 301 306 305 301 299 298 298 298 298 299 301 304 305 306 309 310 310 309 309 309 310 310 311 311 311 311 312 312 312 313 313 314 315 315 315 313 311 310
265 265 263 258 253 248 244 244 245 246 248 249 250 250 250 252 254 255 253 246 234 226 234 258 276 285 288 285 283 281 282 288 303 315 320 311 302 298 301 300 300 301 303 298 293 289 283 287 292 298 300 299 297 296 297 297 298 300 302 304 305 306 307 310 309 308 307 307 308 308 309 310 310 310 311 311 311 312 313 314 315 315 316 315 314 313
265 261 256 247 240 238 242 247 249 251 251 253 253 252 251 250 251 252 252 250 239 226 220 240 262 278 286 288 287 287 286 291 304 314 315 309 303 299 299 296 297 299 299 295 293 292 287 287 290 293 297 298 297 295 294 296 298 300 302 302 302 302 304 306 306 305 305 306 306 306 308 308 309 309 310 310 311 312 313 314 315 315 316 316 316 315
258 253 242 230 224 231 242 247 250 252 252 253 253 252 251 250 251 253 256 271 286 293 288 278 274 273 275 280 283 285 287 294 302 308 307 303 299 295 291 289 290 292 291 290 289 289 287 289 290 292 293 295 296 297 297 298 300 302 302 302 302 301 300 301 302 303 304 305 306 306 308 308 308 308 308 310 310 311 312 313 314 315 316 316 316 315
251 243 228 218 222 232 242 245 247 248 250 250 251 252 256 258 261 266 271 283 295 299 299 292 286 279 275 274 275 279 284 291 296 297 295 291 287 283 281 282 283 284 283 285 287 288 289 290 292 292 291 290 292 296 302 305 307 306 304 303 303 302 301 300 300 301 302 303 304 305 307 308 308 308 307 309 310 311 312 313 314 315 316 316 316 315
236 227 222 221 226 232 238 241 241 241 242 245 248 251 253 255 260 269 280 283 284 287 289 287 284 280 276 275 274 275 278 282 285 285 284 281 278 276 276 279 280 280 277 280 283 286 288 289 291 292 291 289 289 292 298 304 307 306 305 304 302 300 299 299 300 302 302 303 304 305 306 307 307 307 307 308 310 311 311 313 314 316 317 316 315 314
215 217 224 228 229 230 232 236 237 238 237 240 244 248 252 260 267 270 276 278 278 276 274 276 279 279 276 275 275 276 278 280 282 283 283 280 278 276 277 279 280 280 278 277 277 279 280 281 284 286 289 291 292 293 296 299 301 303 305 305 303 300 298 301 304 305 304 304 305 306 306 306 306 305 305 307 309 311 313 314 316 318 319 318 315 313
213 223 231 234 232 230 230 235 237 237 237 245 256 269 281 291 292 289 282 280 278 276 272 272 275 277 277 278 279 280 281 283 284 284 282 279 275 273 273 275 277 278 278 275 273 272 272 274 276 278 281 286 290 294 297 297 299 302 305 306 305 305 307 309 308 307 304 304 304 305 305 305 304 304 305 307 310 313 315 315 316 317 318 317 316 315
231 238 243 245 242 240 238 238 237 237 241 264 291 303 304 301 299 296 292 289 287 286 286 286 286 284 281 278 277 277 278 277 276 276 274 270 268 267 267 268 270 273 274 272 270 268 267 269 272 275 277 281 286 289 291 292 296 299 301 300 300 301 305 306 306 306 306 305 303 303 304 305 306 307 308 310 311 312 313 313 313 313 313 313 313 313
252 254 251 249 247 245 247 250 255 266 281 304 307 299 290 288 290 293 298 299 298 297 298 297 295 293 290 285 279 276 274 274 273 272 269 266 263 261 262 263 264 266 268 269 268 266 265 266 268 272 276 281 286 289 289 291 292 294 295 295 298 301 303 302 302 305 308 307 305 305 306 307 308 310 312 313 313 312 312 311 310 310 310 311 310 308
253 253 249 245 242 241 248 271 290 302 312 307 291 279 272 278 288 297 300 300 299 297 296 294 294 293 292 291 289 286 280 273 271 270 269 266 263 261 260 260 260 261 263 266 268 268 266 266 267 271 277 282 285 286 287 290 291 291 290 294 299 304 303 304 308 311 309 307 306 307 308 308 309 310 312 312 311 310 309 307 306 307 308 307 306 305
249 251 250 249 250 258 285 292 291 286 284 276 275 274 279 286 294 298 298 295 294 293 294 294 293 291 289 289 291 292 290 282 275 271 271 271 270 269 269 267 265 264 263 266 270 274 276 273 273 275 279 281 281 280 281 285 289 291 293 295 295 294 291 298 305 309 309 306 306 306 307 309 311 312 312 310 309 308 307 306 305 304 305 304 303 302
253 259 264 262 271 285 285 275 271 270 272 278 281 284 289 293 295 295 292 290 290 290 290 294 294 292 288 289 292 295 296 295 291 286 279 277 279 280 280 279 278 276 273 271 273 276 280 281 281 281 280 278 276 276 279 284 288 291 292 292 291 287 284 290 297 301 303 304 304 306 309 315 317 316 312 310 308 307 305 305 305 305 305 305 304 303
255 262 266 260 257 256 260 268 276 284 288 289 290 290 291 293 292 289 285 286 287 287 287 288 287 286 286 291 294 297 299 298 296 293 289 284 282 281 281 281 280 280 279 277 275 274 274 276 280 283 285 282 278 277 277 281 285 287 289 290 290 290 289 290 293 296 298 300 302 306 315 322 321 317 311 308 306 304 302 302 303 304 306 306 306 304
235 241 249 256 266 273 278 286 290 292 290 287 286 287 289 290 288 285 281 280 282 283 284 283 281 280 282 288 292 295 296 296 296 295 294 292 289 286 283 281 279 278 277 276 275 273 271 272 275 279 283 283 282 279 277 277 278 281 284 289 292 293 293 293 293 294 294 296 302 312 324 327 322 315 308 305 302 301 300 301 302 303 304 305 305 305
227 240 256 269 279 284 286 287 286 284 282 283 284 285 288 288 288 286 283 280 281 283 285 284 282 280 281 283 285 287 290 291 293 295 296 295 294 291 287 285 283 280 278 277 276 275 273 271 269 269 270 273 276 277 279 278 277 277 280 286 289 290 290 291 293 296 298 302 309 318 326 324 317 311 306 304 302 300 301 302 303 303 303 304 305 305
247 260 272 277 278 278 277 277 278 278 281 285 288 289 288 287 287 286 286 284 282 282 281 281 281 282 282 283 284 285 286 287 289 291 293 294 294 293 292 292 292 290 287 283 280 277 274 269 263 257 254 256 262 268 274 276 276 276 278 281 284 287 289 292 297 303 309 312 315 317 319 312 304 299 298 299 300 301 303 304 304 304 304 305 305 306
264 266 268 268 268 269 270 273 277 280 284 287 289 289 288 285 282 280 280 280 278 277 275 277 279 281 283 284 285 286 286 286 287 288 289 292 295 296 298 301 301 300 297 293 289 286 284 277 265 253 246 246 249 255 266 272 276 279 280 280 283 287 292 297 304 310 315 315 314 313 310 302 295 291 291 296 300 302 304 305 305 305 308 308 308 307
263 260 257 257 259 262 266 272 278 282 285 286 286 286 286 284 282 279 278 278 277 277 276 276 277 278 280 283 284 284 284 284 285 287 289 292 297 299 301 304 306 306 304 303 301 300 298 295 287 272 256 247 245 246 256 267 279 287 289 289 291 296 300 302 306 311 313 311 309 306 302 296 292 291 294 299 303 305 305 305 306 307 310 312 311 309